GFSGBSN_500_spd_336.txt.gz
Wind_Speed
19 20 19 20 21 20 20 20 20 20 19 19 19 18 17 16 15 15 14 13 13 12 11 9 8 8 6 7 5 6 5 5 12 15 11 4 8 16 20 20 26 29 31 28 15 10 9
21 21 22 22 22 22 23 22 23 22 22 22 21 20 20 19 18 18 18 17 17 16 15 12 10 9 5 8 5 5 6 3 8 13 14 11 2 9 14 19 14 18 24 30 21 12 10
22 23 23 23 24 24 25 25 25 25 25 25 23 23 22 21 21 21 21 20 19 18 17 15 12 10 9 10 7 9 6 3 9 12 15 12 13 22 17 17 13 8 20 29 22 16 12
23 24 25 27 28 29 29 30 30 29 28 27 26 25 24 23 22 22 23 23 22 21 19 17 15 13 11 12 8 11 8 5 7 15 17 14 15 23 12 10 13 15 9 13 19 19 12
25 26 28 29 31 32 33 34 35 34 33 32 30 29 27 26 26 27 27 27 27 25 23 21 17 16 13 14 14 12 12 11 9 13 23 21 16 17 18 15 12 7 8 13 14 10 19
21 21 21 23 25 26 28 30 33 34 34 33 31 30 29 28 27 28 28 26 24 21 20 18 19 19 19 20 16 15 15 12 11 13 23 21 12 16 18 13 9 16 17 9 8 15 30
11 13 14 15 17 18 20 22 24 25 25 25 25 23 22 22 21 20 18 17 16 16 17 19 17 21 20 19 18 17 16 15 13 11 16 22 19 19 22 18 10 14 16 14 7 13 22
7 9 11 12 13 14 14 14 12 11 12 13 14 14 14 13 12 13 13 15 17 16 15 16 19 21 17 15 19 18 16 15 13 15 15 21 19 23 23 18 12 8 11 10 12 17 21
5 7 9 10 11 11 11 10 8 6 5 5 6 5 7 8 11 13 12 14 14 14 14 15 16 19 16 18 18 19 15 16 16 16 16 19 24 27 26 18 14 13 12 11 13 18 20
4 6 8 9 10 10 10 9 8 6 4 4 5 7 9 9 9 12 13 13 12 11 8 11 13 14 15 18 18 17 15 16 14 13 18 18 10 27 22 17 8 10 11 10 15 15 16
7 8 8 9 9 10 11 10 9 8 5 3 2 2 5 6 7 8 8 2 5 4 4 2 5 9 15 16 17 15 12 14 14 17 23 26 23 20 23 14 11 1 6 6 11 15 20
5 7 7 8 9 11 12 11 9 8 7 7 7 7 7 6 7 11 8 6 4 7 11 7 6 9 13 15 15 16 14 15 15 11 18 21 13 7 18 14 13 11 10 3 9 16 19
5 6 7 9 11 13 12 12 12 10 10 10 13 16 15 11 17 18 16 18 20 15 18 16 7 8 11 12 11 16 14 11 12 15 21 16 11 8 7 9 19 10 10 9 6 11 12
5 5 6 8 9 11 13 12 12 12 12 11 15 16 15 16 20 25 19 17 17 11 17 14 10 14 10 11 12 16 11 12 21 20 19 11 6 7 6 5 12 17 13 7 1 6 9
3 4 4 5 6 7 8 10 11 11 12 12 13 12 15 19 16 18 13 11 14 14 12 23 22 23 18 17 17 15 20 17 12 13 14 11 12 5 11 1 6 14 15 5 3 9 11
4 4 4 4 4 4 4 4 5 7 10 11 11 10 14 15 10 9 16 9 10 8 5 11 21 20 15 12 17 25 19 20 23 19 16 11 7 9 13 10 5 13 15 4 4 11 9
7 7 6 6 6 5 4 3 1 1 5 7 8 8 9 8 9 10 18 12 4 15 14 9 7 12 11 11 9 8 9 12 17 18 14 11 9 9 13 12 16 13 12 5 5 11 2
5 6 7 6 5 5 4 3 3 1 3 5 5 5 8 10 9 7 10 11 8 16 11 13 11 13 12 11 11 13 13 12 12 12 16 16 12 6 9 11 15 12 11 4 4 8 7
5 4 5 5 4 4 3 2 2 0 2 3 5 9 11 6 3 7 7 12 14 14 15 11 20 17 20 21 16 15 15 15 19 10 13 21 15 14 11 9 10 16 9 6 9 7 9
9 6 4 4 4 3 3 2 2 1 2 2 4 7 9 5 3 3 6 6 10 11 10 10 16 26 25 16 17 16 18 16 23 18 15 14 28 25 22 16 17 17 18 14 10 12 15
10 10 8 5 5 4 3 2 1 0 0 2 4 7 3 7 5 7 3 5 7 8 2 12 12 19 18 21 23 21 19 23 20 12 7 19 26 23 14 19 21 18 22 22 19 13 10
11 9 11 10 8 7 7 6 3 2 2 1 1 3 3 8 8 6 10 7 5 5 2 1 4 8 15 24 25 28 27 28 22 12 11 23 31 27 24 13 13 18 17 23 20 22 23
12 12 12 12 13 11 11 11 10 7 4 1 0 1 4 3 3 5 4 7 4 9 6 6 6 7 10 12 13 13 15 19 14 7 15 21 33 29 27 19 14 12 15 20 27 25 24
19 16 15 15 14 15 15 15 15 14 12 9 7 6 5 2 3 3 3 6 5 5 5 8 9 9 8 11 9 11 14 13 12 10 13 22 33 34 30 25 19 18 16 19 20 24 27
27 24 22 20 19 18 17 19 19 19 18 17 15 13 11 7 4 5 6 6 6 6 6 6 6 9 11 11 10 10 11 12 13 13 13 16 21 34 37 34 27 27 25 28 27 25 24
34 33 30 27 27 26 23 22 21 24 23 22 20 20 18 13 9 10 8 7 7 9 6 7 6 6 5 8 11 13 13 14 14 14 14 15 17 18 19 23 28 29 30 26 28 29 30
41 39 39 38 34 33 32 30 27 25 25 25 24 24 23 19 16 15 14 12 13 11 4 7 9 6 5 5 9 12 13 14 12 11 14 12 13 15 18 20 21 21 26 29 27 23 23
44 44 44 43 42 42 40 38 36 33 29 28 26 27 26 25 23 21 21 17 16 14 12 10 8 8 9 7 6 7 7 9 10 8 7 9 12 12 11 13 13 10 12 17 17 18 19
53 49 47 46 43 43 44 45 43 40 37 34 31 30 27 26 26 25 26 24 19 18 15 14 11 8 12 10 11 9 7 7 10 10 6 9 10 9 8 9 8 5 8 12 14 15 17

GFSGBSN_500_spd_339.txt.gz
Wind_Speed
20 21 21 21 21 21 21 21 21 21 21 21 20 20 19 17 16 15 14 13 12 13 11 11 9 7 8 6 7 5 4 3 10 13 12 7 7 21 20 20 21 19 21 15 13 16 14
20 21 22 23 23 23 23 22 23 23 23 24 23 22 22 20 19 18 17 16 16 16 15 12 11 10 10 7 6 6 1 3 11 14 13 8 13 6 13 12 12 16 17 14 8 12 14
20 21 21 22 24 24 25 26 25 26 26 25 25 24 24 23 22 22 20 19 18 16 15 13 13 13 13 9 8 8 4 3 13 16 14 15 13 13 10 12 15 7 11 20 15 18 15
22 22 23 25 27 28 30 31 31 32 31 31 30 28 26 24 24 23 21 20 19 19 18 17 16 17 14 11 9 9 7 7 12 20 19 15 14 15 13 17 17 22 3 16 14 13 11
24 25 26 27 29 30 32 33 34 35 35 35 34 33 31 29 27 25 24 23 24 23 23 21 20 20 16 18 17 12 11 12 11 16 20 18 16 17 11 11 22 30 19 5 32 27 8
23 23 22 21 22 24 25 27 29 31 32 32 34 34 33 31 29 28 27 25 25 24 21 21 22 23 22 26 20 16 15 13 14 10 18 17 16 10 8 13 20 22 20 27 30 34 15
11 13 14 16 16 17 18 19 20 21 22 23 24 25 26 26 25 24 22 20 20 19 20 21 20 24 24 21 19 17 16 17 13 10 16 18 17 12 10 13 14 19 10 16 21 28 27
9 8 8 9 11 11 12 13 13 11 9 7 7 10 12 14 14 14 15 15 15 16 16 17 22 24 18 19 18 18 16 15 13 17 21 25 19 15 11 11 14 13 12 15 17 22 24
4 3 6 9 10 12 13 13 12 10 8 5 2 3 6 7 9 11 13 13 14 14 15 15 18 20 18 19 21 19 17 18 16 18 25 25 23 16 14 11 14 11 9 12 16 17 19
4 6 9 11 11 12 12 12 10 9 8 7 5 5 7 9 10 10 10 12 13 11 15 15 16 15 16 19 19 19 18 18 17 20 30 26 32 25 18 12 7 4 6 10 12 11 11
6 6 5 6 9 10 10 9 7 6 5 4 3 3 4 5 5 4 2 1 2 3 8 8 12 13 18 18 17 17 18 17 19 21 30 32 33 29 21 16 10 6 6 6 14 13 10
3 4 5 7 9 10 10 9 8 8 7 9 10 9 8 8 13 19 16 16 13 11 10 6 7 12 14 18 17 18 19 18 19 20 33 28 30 29 21 15 11 12 1 5 7 12 11
2 3 4 7 10 11 10 10 10 9 10 13 16 16 16 24 24 19 18 17 15 11 9 9 10 14 11 13 14 14 15 13 15 16 23 25 19 25 30 18 14 6 4 2 7 11 14
1 1 2 4 6 8 10 9 9 10 11 14 15 15 20 24 19 14 15 14 13 14 11 11 14 18 19 13 14 14 16 19 20 19 23 17 11 14 15 19 18 17 10 10 2 8 10
2 2 2 2 3 4 5 6 6 7 10 12 12 12 15 19 16 11 8 12 15 18 14 16 23 21 19 23 23 23 26 23 19 17 24 15 13 12 11 13 19 18 16 10 4 5 8
6 5 5 4 5 4 3 2 2 2 5 7 8 8 12 14 11 7 6 6 16 20 20 20 17 17 19 25 28 29 30 20 23 28 21 20 14 10 8 13 13 14 19 9 4 4 4
8 8 8 7 6 6 4 3 2 2 3 5 5 5 2 4 7 9 9 5 13 10 13 12 12 12 17 22 23 23 17 11 19 20 19 16 15 8 6 9 7 18 19 16 10 4 3
7 6 6 7 6 5 3 2 3 4 4 6 5 6 2 4 6 7 11 6 12 12 5 9 11 11 15 16 13 14 11 6 11 20 13 13 14 11 10 7 9 9 20 15 11 8 4
7 6 6 6 6 4 2 1 3 4 5 6 5 5 5 6 1 5 8 7 8 13 6 12 11 12 12 13 11 11 13 13 13 13 12 16 17 15 13 11 11 12 15 10 6 4 5
12 9 6 5 6 5 4 2 2 4 4 5 5 8 6 10 10 7 2 4 2 8 13 6 17 17 14 15 14 13 14 18 15 12 8 15 20 20 18 18 17 16 13 15 8 10 15
11 12 10 7 6 6 5 4 4 3 5 6 7 8 8 11 12 9 4 7 10 5 7 15 22 20 20 21 20 17 15 15 13 8 8 14 18 27 24 21 19 20 19 17 19 14 18
13 11 10 11 9 8 8 7 5 5 5 6 7 6 7 7 8 5 4 6 4 1 6 9 14 20 26 24 21 21 18 20 20 16 18 18 17 23 27 29 27 26 26 19 23 21 21
14 13 12 11 13 13 11 12 11 8 6 5 4 4 3 2 2 3 3 2 4 8 4 6 8 14 18 25 26 24 21 19 16 12 15 16 21 24 19 17 18 19 20 23 23 22 24
23 19 16 14 13 13 16 15 16 15 13 11 9 7 4 1 0 1 4 2 2 4 4 6 8 9 10 11 10 13 19 18 14 12 16 16 22 29 25 22 23 22 21 21 17 18 17
28 25 23 20 18 16 15 17 19 19 19 18 17 15 11 8 6 6 5 4 6 5 4 2 4 7 10 12 12 12 13 14 14 15 14 19 20 28 32 28 28 31 27 24 23 24 23
35 32 29 27 26 24 21 20 20 20 22 22 23 22 19 17 13 13 11 9 10 7 5 8 6 5 5 9 12 13 14 13 14 12 13 16 20 17 23 33 33 32 31 32 32 28 25
44 40 36 33 31 30 30 28 27 26 23 24 26 26 25 23 20 18 17 15 14 10 8 12 9 8 7 7 9 11 12 10 11 10 13 14 15 17 18 20 21 26 29 28 26 22 22
51 48 44 41 37 35 34 34 35 33 32 30 28 28 27 27 26 23 22 20 18 17 13 13 12 11 10 9 7 5 7 7 8 7 9 12 13 14 15 15 15 17 22 23 21 19 18
57 54 51 47 43 39 37 38 37 39 41 38 36 33 31 28 27 26 26 26 22 20 19 17 14 13 12 12 10 9 8 8 9 8 6 10 12 11 11 9 8 10 14 16 16 17 18

GFSGBSN_500_spd_342.txt.gz
Wind_Speed
21 21 22 22 22 22 22 22 22 22 23 24 24 23 22 20 19 18 16 15 15 14 13 13 10 8 6 4 4 3 7 15 14 10 8 13 13 14 13 9 5 7 10 11 13 10 12
21 20 21 22 23 23 24 24 24 24 25 25 25 26 26 24 23 20 19 18 18 17 15 15 12 10 8 7 5 2 3 10 13 13 10 11 10 7 12 7 1 5 10 10 14 13 11
20 21 22 23 23 24 25 26 27 27 28 28 29 28 27 27 26 24 22 21 20 19 16 15 14 12 10 9 7 6 5 5 8 12 10 12 10 9 12 15 4 3 10 11 15 13 10
21 22 23 24 25 27 29 31 32 33 33 34 34 33 32 31 28 26 25 23 21 20 19 18 17 16 14 13 11 10 8 11 12 14 12 14 12 12 16 18 20 20 21 11 17 11 14
22 23 24 26 27 28 29 30 31 33 34 35 36 38 37 35 33 30 27 25 23 23 23 22 21 20 18 18 18 14 13 15 10 8 20 16 13 12 16 18 25 28 40 41 24 11 15
23 24 24 23 23 24 25 26 26 26 29 31 33 34 35 36 35 33 30 28 28 27 25 24 23 22 22 22 21 18 15 14 12 8 21 18 12 15 16 18 23 27 28 30 30 19 16
20 15 15 16 16 16 17 18 18 19 19 19 19 22 24 27 29 30 29 28 27 26 25 24 24 23 22 20 19 18 17 15 13 11 18 18 11 17 18 14 18 21 22 22 23 20 23
10 12 11 10 12 13 14 15 16 15 14 13 11 9 9 9 12 16 17 16 16 17 17 18 20 21 20 17 21 20 14 13 14 19 19 14 16 16 15 13 12 13 17 19 17 19 16
9 8 9 12 14 14 14 14 15 14 13 11 9 6 3 3 6 7 10 12 13 14 15 15 15 15 16 20 22 21 15 16 17 24 20 19 17 13 12 12 9 10 14 13 15 14 12
7 8 11 10 7 9 11 12 11 10 10 9 8 7 6 6 8 9 11 12 13 14 15 16 16 13 17 21 21 20 18 18 19 27 28 20 17 15 13 11 5 8 10 12 14 14 14
6 4 3 5 6 8 10 9 9 10 9 7 5 3 3 3 3 5 5 6 8 11 11 12 14 16 17 20 19 18 18 18 21 29 32 23 20 18 12 11 9 4 12 9 14 15 14
1 0 2 5 6 7 9 9 9 9 7 6 8 10 9 9 10 13 12 10 7 5 5 5 9 15 16 19 19 20 19 19 22 28 35 28 24 21 12 11 12 4 9 10 11 12 15
1 1 1 4 6 7 8 10 10 7 7 8 11 13 13 12 13 14 14 11 7 7 7 6 8 13 15 19 18 18 18 17 19 24 32 28 26 16 18 19 17 11 10 9 6 7 11
2 2 2 1 3 5 6 7 8 7 8 10 11 13 11 9 13 12 11 7 5 6 7 9 12 16 15 16 18 18 16 15 18 27 32 24 16 18 20 23 21 13 8 10 2 5 7
5 4 4 4 3 4 4 4 4 4 5 7 7 7 6 6 10 10 8 10 15 12 10 20 22 19 17 14 14 14 16 20 25 28 28 22 15 14 17 28 27 22 12 8 8 5 7
9 8 7 6 5 5 6 6 4 2 1 2 3 2 2 1 3 5 9 14 17 20 22 23 19 20 22 21 19 23 22 21 23 30 25 17 15 16 13 16 17 20 18 13 11 7 4
12 11 11 10 8 6 6 7 6 5 5 3 1 1 2 5 4 4 10 10 14 12 9 10 12 14 16 21 26 26 23 19 19 25 20 20 19 16 10 8 11 20 23 21 16 8 7
10 10 9 9 9 6 5 6 7 6 6 7 4 4 3 5 7 8 5 7 11 11 9 3 5 10 16 16 17 18 18 23 24 24 20 20 19 10 10 7 6 9 17 18 17 10 6
12 10 9 9 8 6 5 5 7 7 7 9 7 4 1 1 5 8 11 2 9 11 6 8 6 8 14 15 15 15 16 22 25 20 18 19 19 12 10 11 9 9 10 14 7 9 9
18 16 13 9 8 7 6 6 5 8 7 8 7 6 4 3 4 6 8 3 5 15 11 10 10 12 11 13 12 15 12 11 14 17 19 18 14 16 15 13 13 12 13 17 18 14 14
15 17 17 14 10 9 8 7 7 6 8 8 7 5 6 4 6 6 3 2 3 8 16 16 11 17 17 14 14 12 11 10 9 6 7 9 12 14 22 20 18 15 14 17 18 16 18
18 16 14 16 15 12 10 9 8 7 7 7 7 7 7 4 5 4 2 2 6 8 8 15 20 18 21 22 20 20 17 14 14 8 13 15 18 17 18 26 25 21 18 16 19 16 17
20 18 16 16 15 17 14 13 12 10 8 6 4 4 3 3 1 3 6 6 6 6 8 8 10 17 18 21 22 23 23 23 20 16 13 17 13 19 19 20 22 23 18 16 18 18 20
27 24 21 18 17 17 18 17 16 16 14 12 9 6 4 1 2 4 4 2 4 4 5 8 10 12 13 14 13 12 13 15 14 14 12 13 14 22 24 20 19 17 15 14 12 13 11
37 32 29 26 22 19 19 19 20 19 20 19 17 14 11 8 7 8 6 5 5 4 4 6 6 11 12 12 13 14 16 15 14 15 17 16 15 18 26 27 26 22 21 21 21 20 18
44 41 37 34 31 28 24 22 21 20 22 23 22 21 19 17 15 13 13 11 8 5 7 8 7 8 9 11 14 15 15 13 14 14 14 15 15 16 16 26 32 25 24 24 25 23 21
51 48 45 42 39 35 33 30 27 25 23 22 22 23 23 22 21 20 18 17 14 11 9 11 8 8 8 9 9 11 12 12 11 10 11 14 15 15 16 16 20 23 28 30 26 23 22
56 54 52 48 45 41 38 36 34 32 30 28 27 26 23 22 23 23 22 21 18 16 14 13 12 11 11 11 9 8 10 10 10 10 11 10 12 13 14 15 15 18 18 19 19 19 17
64 60 58 56 52 50 47 43 40 37 34 32 33 33 32 29 25 23 23 24 23 20 19 17 15 14 13 13 13 12 11 11 11 11 9 9 13 13 13 13 12 14 15 15 16 15 13

GFSGBSN_500_spd_345.txt.gz
Wind_Speed
21 23 22 22 24 23 23 24 23 23 22 22 23 23 23 23 23 21 19 17 15 14 12 11 7 6 6 4 1 3 5 5 5 6 9 10 7 7 10 5 2 1 6 7 5 6 7
19 20 23 22 21 22 22 23 24 25 25 25 25 26 25 25 25 24 23 21 19 17 15 13 10 7 7 6 4 4 7 7 5 6 5 9 4 7 14 9 5 1 6 8 7 6 7
20 21 23 23 23 24 25 26 27 28 29 29 29 29 29 28 27 26 26 24 22 20 18 15 12 10 9 9 7 7 7 6 3 8 7 7 2 5 13 19 11 6 9 9 10 6 7
21 21 22 23 24 25 26 28 29 31 32 33 33 33 33 33 32 31 28 26 25 23 20 16 15 12 11 12 11 11 11 9 11 11 10 13 10 12 18 24 22 19 3 13 11 9 6
21 22 23 24 24 24 23 24 26 28 30 32 33 34 34 35 36 36 33 30 27 25 22 20 19 18 16 17 16 14 15 14 8 13 12 14 11 8 20 26 28 26 24 17 17 10 6
25 24 22 21 19 20 22 23 24 25 26 26 28 29 31 32 33 35 36 33 30 28 25 24 22 22 20 19 20 17 16 14 7 12 15 15 14 8 22 23 24 24 24 27 23 23 17
19 18 15 14 16 15 18 19 20 21 21 21 21 20 17 18 22 25 28 28 28 28 27 24 23 24 22 20 19 17 17 14 10 14 19 17 14 13 18 20 19 19 19 22 21 20 17
10 10 11 11 12 16 17 19 19 19 18 17 16 14 12 8 6 9 13 18 21 22 21 21 20 22 20 18 19 16 13 12 14 20 23 20 17 16 16 16 15 16 17 16 15 17 15
9 10 10 11 14 13 13 15 14 13 13 13 13 11 7 4 0 4 6 8 10 12 13 14 15 17 18 21 21 17 16 15 17 27 25 22 20 18 15 15 13 10 11 14 14 13 12
9 9 10 7 6 8 11 10 10 10 11 11 10 7 6 6 5 5 5 8 10 11 13 13 14 16 19 23 23 20 21 21 22 30 26 23 22 18 14 12 10 6 9 15 16 17 17
7 5 2 3 5 7 8 8 9 10 12 12 9 7 4 3 3 4 5 7 9 11 10 13 14 18 20 22 21 19 20 21 26 33 27 24 21 20 15 9 7 5 6 16 15 14 14
3 2 1 3 4 5 8 8 9 11 13 11 9 8 7 4 4 5 6 6 6 2 4 7 13 17 19 21 21 19 21 21 28 33 33 25 21 19 15 11 8 7 6 9 12 12 13
1 2 2 2 2 4 6 7 9 10 10 10 10 10 10 9 8 10 9 7 3 4 4 5 10 14 17 18 19 21 21 20 22 26 33 26 21 16 13 12 10 3 8 5 7 8 10
3 3 4 3 3 3 4 5 6 7 9 11 11 8 10 9 10 8 7 6 3 1 2 4 10 14 15 15 16 18 18 19 19 21 34 26 20 16 16 16 13 12 8 7 2 5 8
6 6 6 6 5 6 6 4 5 4 5 8 8 7 10 7 8 10 9 9 9 8 7 8 14 13 13 13 14 14 15 16 17 21 33 23 16 11 12 14 17 17 13 14 7 3 5
10 10 9 8 7 7 9 6 6 6 4 3 4 7 8 8 5 7 7 16 22 21 18 15 14 13 13 12 13 16 18 18 18 26 28 23 13 14 12 13 15 19 18 17 12 5 6
14 13 13 12 11 10 9 8 6 7 6 3 1 3 5 7 7 6 8 9 14 15 15 14 10 10 10 14 18 18 17 17 25 26 26 19 16 17 17 14 16 15 18 21 16 6 7
13 12 11 10 9 10 10 9 7 7 8 6 4 3 2 4 8 8 7 7 9 12 10 9 9 7 10 15 17 18 20 16 25 21 22 18 20 19 17 13 6 7 16 18 15 8 6
17 15 12 10 9 9 10 9 8 8 8 7 6 2 3 4 0 5 8 6 9 11 8 5 8 11 11 13 13 16 19 21 20 20 19 21 22 17 15 9 5 2 6 8 9 9 10
23 21 18 15 11 9 10 10 9 8 8 7 6 7 5 5 4 1 4 4 12 17 12 12 9 11 13 13 13 11 12 18 20 20 17 18 18 15 12 10 7 7 4 11 11 7 11
19 20 20 19 16 12 12 11 10 9 8 9 8 7 7 7 4 3 3 2 5 17 19 14 14 14 14 16 15 16 17 15 26 22 21 22 22 20 20 16 13 12 8 11 10 11 13
22 19 17 16 18 17 13 13 11 10 9 8 8 8 7 6 5 4 3 5 8 10 17 18 18 14 20 20 19 13 12 12 12 13 15 14 15 18 20 23 20 17 15 11 10 8 12
27 24 22 20 17 18 18 16 15 13 11 9 7 5 5 5 5 6 7 8 10 9 8 8 14 16 17 20 22 20 18 17 16 15 18 18 19 18 17 17 21 24 23 18 15 13 12
33 30 26 23 21 20 19 20 18 17 16 13 10 8 6 6 7 6 6 6 6 5 5 6 9 11 12 17 17 19 21 22 20 18 19 20 21 20 21 20 18 16 13 9 7 8 6
40 38 34 30 26 23 22 21 22 22 20 19 17 14 11 9 8 6 4 3 4 3 5 5 4 6 12 14 15 16 16 17 15 16 17 17 15 16 20 25 21 17 15 13 12 13 13
48 46 43 40 35 32 28 26 24 24 24 23 23 21 19 16 14 12 10 8 6 5 5 5 5 6 6 10 15 17 16 15 14 14 15 15 15 16 16 22 28 22 20 17 14 15 15
54 53 51 49 45 41 37 34 30 28 26 25 25 24 23 22 21 18 16 15 13 11 9 7 5 6 7 7 9 11 15 15 14 14 13 12 14 14 15 17 15 19 25 23 21 19 18
63 59 57 56 53 50 46 43 39 35 32 29 27 25 23 22 21 21 20 18 17 15 14 13 11 9 8 8 9 9 11 14 14 14 14 13 13 15 16 16 16 15 17 22 22 20 17
67 67 63 61 59 57 53 50 47 43 40 36 33 31 29 26 24 22 20 18 19 18 18 16 15 14 12 11 10 10 11 12 15 13 12 10 11 13 14 15 15 15 15 16 17 16 15